Погода Поярково

Погода Поярково : погода сейчас, прогноз погоды и архив. Всё, что Вы хотите узнать о погоде Поярково!

Поиск расширенной информации на нашем сайте:

Другие новости

Новости СМИ2

Главная страница сайта

Новости сайта

03.07.2017

Напоминаем, что на нашем специализированном сайте Метеоцентр.Азия вы можете получить высокодетализированные автоматические прогнозы погоды по пунктам России, СНГ и мира в авиационном формате (включающие направление и скорость ветра, видимость, явления погоды, количество и форму облачности, нижнюю и верхнюю границу облачности).

Рекомендуем: новая баня екатеринбург

Погода Поярково - сегодня

Время (UTC), дата Ветер
(°,м/с) 
Видим.   Явления Облачность Т
(°С)
Тd
(°С)
f(%) Тe
(°С)
Pmin
(гПа)
dP
(гПа)
Po
(мм)
O2
(г/м3)
Тmin Tmax R s Состояние
почвы
18 18.01.18 110 (В) н/о    10/0 верхняя 
[Ci sp]
-27.9 -31.5 71 -29  1021.9  -0.6  754  340           
21 18.01.18 110 (В) н/о    10/0 верхняя 
[Ci sp]
-22.9 -26.3 74 -26  1020  -1.5  753  333           
00 19.01.18 110 (В) 10 км    10/0 средняя 
[Ac As]
-21.1 -24.5 74 -24  1019.3  -0.6  753  330  -30.7      17  равномерный
сухой снег
100% 
03 19.01.18 090 (В) 10 км    10/0 средняя, верхняя 
[Ac trans|Cs]
-17.2 -22.1 66 -20  1016.8  -2.3  751  325           
06 19.01.18 120 (ЮВ) 10 км    10/0 верхняя 
[Cs]
-15.7 -21.4 62 -18  1015  -1.6  750  322           
09 19.01.18 160 (Ю) н/о  слаб. снег  10/0 верхняя 
[Cs]
-18.5 -21.5 77 -19  1015  -0.2  750  326           
12 19.01.18 240 (ЮЗ) н/о  слаб. снег  10/0 верхняя 
[Cs]
-21 -23.9 77 -21  1015.3  0.2  750  329    -15  0.0     
15 19.01.18 тихо ()   н/о  слаб. снег  10/0 верхняя 
[Cs]
-20.6 -23.5 78 -21  1014.8  -0.5  749  328           
18 19.01.18 210 (ЮЗ) н/о  {снег}  10/0 верхняя 
[Cs]
-25.9 -29.2 74 -26  1014.9  -0.2  749  335           
21 19.01.18 250 (З) н/о    6/0 верхняя 
[Ci fib]
-19.6 -25.5 59 -22  1014  -0.5  749  327           
00 20.01.18 190 (Ю) 10 км    ясно 
-24.1 -29.9 59 -25  1015.9  1.6  750  333  -25.9    0.3  17  равномерный
сухой снег
100% 
03 20.01.18 240 (ЮЗ) 10 км    ясно 
-21.5 -28.4 54 -26  1016.2  0.5  750  330           
06 20.01.18 250 (З) 20000 м    4/0 верхняя 
[Ci fib]
-20.1 -27.8 50 -23  1017.3  1.1  751  329           
09 20.01.18 250 (З) н/о    8/0 верхняя 
[Ci fib]
-24.2 -28.1 70 -25  1019.7  2.1  753  335           
12 20.01.18 300 (СЗ) н/о    8/0 верхняя 
[Ci fib]
-27.4 -30.7 73 -28  1021.3  1.3  754  340    -19.9       
15 20.01.18 290 (З) н/о  слаб. снег  10/0 верхняя 
[Cs]
-26.6 -30.1 72 -30  1022.5  1.3  755  339           
18 20.01.18 290 (З) н/о  слаб. снег  10/0 верхняя 
[Cs]
-25.7 -29.4 71 -31  1023.8  1.4  756  338           
21 20.01.18 280 (З) н/о  слаб. снег  10/0 верхняя 
[Cs]
-26.7 -30.3 71 -32  1024.5  0.6  756  340           
00 21.01.18 290 (З) 20000 м  {снег}  ясно 
-27.8 -32.2 66 -31  1025.5  0.9  757  342  -28.3    0.0  17  равномерный
сухой снег
100% 
03 21.01.18 290 (З) 20000 м    ясно 
-24.2 -32 48 -30  1025.3  0.1  757  337           
06 21.01.18 300 (СЗ) 20000 м    ясно 
-23.1 -32.6 42 -29  1024.3  -0.9  756  335           
09 21.01.18 010 (С) н/о    ясно 
-27.7 -33.2 59 -28  1024  -0.6  756  341           
12 21.01.18 330 (СЗ) н/о    ясно 
-32.5 -36.6 67 -33  1024.3  756  348    -22.7       
15 21.01.18 290 (З) н/о    ясно 
-32.3 -36.3 68 -36  1024.1  -0.2  756  347           
18 21.01.18 290 (З) н/о    ясно 
-31.2 -35.7 65 -35  1023.6  -0.4  755  346           
Время (UTC), дата Ветер
(°,м/с) 
Видим.   Явления Облачность Т
(°С)
Тd
(°С)
f(%) Тe
(°С)
Pmin
(гПа)
dP
(гПа)
Po
(мм)
O2
(г/м3)
Тmin Tmax R s Состояние
почвы

Для получения пояснительной информации подведите курсор к названию столбца.

ПОГОДА Поярково - архив

Всё, что Вы хотите узнать о погоде Поярково - удобно и подробно!

Выберите нужную дату (начиная с 1 января 2015* года) и нажмите кнопку "Найти".
Будут отображены архивные сводки погоды по пункту Поярково, начиная с указанной даты.


Отображать данные в формате CSV (для использования в таблицах Excel)


Внимание! Наш архив погоды предназначен исключительно для личного некоммерческого использования в познавательных целях. Если Вам необходимы официальные справки о состоянии погоды (для производственных, юридических, коммерческих и т.п. целей), обращайтесь в органы Росгидромета.

*Примечание: данная дата относится к архиву по метеостанциям СССР (Россия, СНГ, Балтия).
Архив по метеостанциям Зарубежной Европы и Азии (кроме Китая) хранится 10 дней, по другим регионам земного шара (Китай, Африка, Америка, Австралия, Океания) - 1 день.

Поярково - район местоположения метеостанции


Название, широта, долгота, высота метеостанции:
Поярково 49.6°ш. 128.6°д. 115 м над ур. моря [Российская Федерация]

Дополнительная информация

В oтличие oт бoльшинства пoгoдных сайтoв мы публикуем пoдрoбную метеoинфoрмацию в детальнoм прoфессиoнальнoм фoрмате.

Характеристики температуры и влажнoсти вoздуха измеряются на высoте 2 м в тени вдали oт зданий и деревьев.
Скoрoсть ветра измеряется на высoте 10 м (на урoвне рoста челoвека скoрoсть ветра ниже в 1.5-2 раза). Если метеoстанция нахoдится в гoрoде или в лесу, тo скoрoсть ветра занижена на 2-4 м/с пo сравнению с oткрытым местoм. Скoрoсть ветра над акватoриями крупных рек и oзёр, а также на вершинах хoлмoв на 2-5 м/с выше, чем в oбычных услoвиях.
Атмoсфернoе давление в разных тoчках местнoсти мoжет значительнo oтличаться oт давления на метеoстанции, в зависимoсти oт услoвий рельефа (при пoдъёме на 10 м давление пoнижается примернo на 1 мм рт.ст.).